FBZ737 SAZS-SAWH

Flight info

Callsign FBZ737
Flight time 2h 13m
Altitude 37000
Route TORES2C TORES UW44 ESQ UT658 GAL UW42 MUBES UW63 LOKEN DCT DABLI DABLI1Q
Aircraft B738/M-SDE2E3FGHIRWXY/LB1

Departure

Time 2026-04-26 20:46
Airport Teniente Luis Candelaria International Airport (SAZS)

Arrival

Time 2026-04-26 23:00
Airport Ushuaia - Malvinas Argentinas International Airport (SAWH)
Time Latitude Longitude Altitude Speed Heading
2026-04-26 20:32 -41.14664 -71.16141 2754 ft 0 kts 24°
2026-04-26 20:37 -41.14667 -71.16143 2754 ft 2 kts 24°
2026-04-26 20:38 -41.14683 -71.16152 2758 ft 2 kts 24°
2026-04-26 20:38 -41.14699 -71.16161 2756 ft 2 kts 24°
2026-04-26 20:38 -41.14714 -71.16170 2757 ft 0 kts 24°
2026-04-26 20:41 -41.14705 -71.16172 2757 ft 2 kts 341°
2026-04-26 20:41 -41.14702 -71.16192 2757 ft 2 kts 258°
2026-04-26 20:41 -41.14723 -71.16216 2756 ft 8 kts 217°
2026-04-26 20:42 -41.14789 -71.16281 2754 ft 16 kts 213°
2026-04-26 20:42 -41.14910 -71.16326 2756 ft 20 kts 169°
2026-04-26 20:42 -41.14988 -71.16176 2758 ft 23 kts 115°
2026-04-26 20:42 -41.15061 -71.15962 2759 ft 29 kts 112°
2026-04-26 20:43 -41.15145 -71.15698 2759 ft 34 kts 114°
2026-04-26 20:43 -41.15250 -71.15394 2762 ft 38 kts 115°
2026-04-26 20:43 -41.15371 -71.15066 2764 ft 39 kts 116°
2026-04-26 20:43 -41.15481 -71.14760 2767 ft 33 kts 110°
2026-04-26 20:44 -41.15518 -71.14546 2765 ft 10 kts 129°
2026-04-26 20:44 -41.15554 -71.14525 2767 ft 2 kts 174°
2026-04-26 20:44 -41.15537 -71.14527 2766 ft 2 kts 174°
2026-04-26 20:44 -41.15533 -71.14528 2767 ft 0 kts 183°
2026-04-26 20:45 -41.15536 -71.14532 2767 ft 1 kts 212°
2026-04-26 20:45 -41.15543 -71.14557 2767 ft 4 kts 263°
2026-04-26 20:45 -41.15534 -71.14591 2767 ft 4 kts 295°
2026-04-26 20:45 -41.15499 -71.14682 2764 ft 40 kts 297°
2026-04-26 20:46 -41.15256 -71.15393 2760 ft 127 kts 294°
2026-04-26 20:46 -41.14792 -71.16759 2873 ft 188 kts 294°
2026-04-26 20:46 -41.14222 -71.18432 3675 ft 203 kts 294°
2026-04-26 20:46 -41.13660 -71.20068 5036 ft 184 kts 294°
2026-04-26 20:47 -41.13157 -71.21512 6397 ft 166 kts 295°
2026-04-26 20:47 -41.12815 -71.22469 6730 ft 186 kts 295°
2026-04-26 20:47 -41.11853 -71.25133 5080 ft 307 kts 295°
2026-04-26 20:47 -41.10834 -71.28078 4555 ft 354 kts 292°
2026-04-26 20:48 -41.10023 -71.30819 7371 ft 284 kts 289°
2026-04-26 20:48 -41.09422 -71.33061 9751 ft 240 kts 292°
2026-04-26 20:48 -41.08717 -71.35201 10032 ft 272 kts 294°
2026-04-26 20:48 -41.08280 -71.37639 10004 ft 273 kts 266°
2026-04-26 20:49 -41.08843 -71.39979 10013 ft 268 kts 235°
2026-04-26 20:49 -41.10217 -71.41595 10007 ft 266 kts 206°
2026-04-26 20:49 -41.12013 -71.42172 10165 ft 271 kts 180°
2026-04-26 20:49 -41.13895 -71.41854 10893 ft 274 kts 167°
2026-04-26 20:50 -41.15745 -71.41248 11782 ft 274 kts 166°
2026-04-26 20:50 -41.17600 -71.40590 12593 ft 277 kts 163°
2026-04-26 20:50 -41.19421 -71.39784 13346 ft 281 kts 161°
2026-04-26 20:50 -41.21282 -71.38920 14079 ft 286 kts 161°
2026-04-26 20:51 -41.23181 -71.38055 14794 ft 291 kts 161°
2026-04-26 20:51 -41.25116 -71.37186 15519 ft 295 kts 162°
2026-04-26 20:51 -41.27072 -71.36314 16248 ft 298 kts 162°
2026-04-26 20:51 -41.29048 -71.35437 16949 ft 301 kts 162°
2026-04-26 20:52 -41.31051 -71.34549 17634 ft 305 kts 162°
2026-04-26 20:52 -41.33107 -71.33637 18018 ft 321 kts 162°
2026-04-26 20:52 -41.35298 -71.32665 18171 ft 343 kts 162°
2026-04-26 20:52 -41.37611 -71.31637 18532 ft 355 kts 162°
2026-04-26 20:53 -41.39971 -71.30587 19138 ft 360 kts 162°
2026-04-26 20:53 -41.42352 -71.29526 19838 ft 362 kts 162°
2026-04-26 20:53 -41.44749 -71.28456 20501 ft 364 kts 162°
2026-04-26 20:53 -41.47161 -71.27379 21137 ft 368 kts 162°
2026-04-26 20:54 -41.49609 -71.26285 21610 ft 375 kts 162°
2026-04-26 20:54 -41.52095 -71.25173 22192 ft 377 kts 162°
2026-04-26 20:54 -41.54584 -71.24058 22781 ft 380 kts 162°
2026-04-26 20:54 -41.57100 -71.22931 23304 ft 383 kts 161°
2026-04-26 20:55 -41.59629 -71.21797 23896 ft 385 kts 161°
2026-04-26 20:55 -41.62183 -71.20651 24386 ft 389 kts 161°
2026-04-26 20:55 -41.64761 -71.19493 24848 ft 393 kts 161°
2026-04-26 20:55 -41.67328 -71.18339 25392 ft 394 kts 161°
2026-04-26 20:56 -41.69923 -71.17172 25965 ft 394 kts 161°
2026-04-26 20:56 -41.72554 -71.16087 26407 ft 397 kts 169°
2026-04-26 20:56 -41.75297 -71.15739 26989 ft 395 kts 178°
2026-04-26 20:56 -41.78036 -71.15610 27650 ft 392 kts 179°
2026-04-26 20:57 -41.80753 -71.15522 28263 ft 389 kts 179°
2026-04-26 20:57 -41.83463 -71.15435 28710 ft 391 kts 179°
2026-04-26 20:57 -41.86192 -71.15334 29188 ft 391 kts 178°
2026-04-26 20:57 -41.88901 -71.15219 29774 ft 388 kts 178°
2026-04-26 20:58 -41.90719 -71.15136 30180 ft 385 kts 178°
2026-04-26 20:58 -41.93393 -71.15006 30680 ft 384 kts 178°
2026-04-26 20:58 -41.96067 -71.14872 31097 ft 385 kts 178°
2026-04-26 20:58 -41.98743 -71.14735 31526 ft 385 kts 178°
2026-04-26 20:59 -42.01416 -71.14597 31972 ft 383 kts 178°
2026-04-26 20:59 -42.04072 -71.14458 32402 ft 382 kts 178°
2026-04-26 20:59 -42.06734 -71.14320 32784 ft 383 kts 178°
2026-04-26 20:59 -42.09402 -71.14181 33079 ft 385 kts 178°
2026-04-26 21:00 -42.12084 -71.14041 33398 ft 386 kts 178°
2026-04-26 21:00 -42.14730 -71.13903 33798 ft 384 kts 178°
2026-04-26 21:00 -42.17382 -71.13764 34317 ft 379 kts 178°
2026-04-26 21:00 -42.20002 -71.13628 34708 ft 377 kts 178°
2026-04-26 21:01 -42.22630 -71.13490 34973 ft 378 kts 178°
2026-04-26 21:01 -42.27970 -71.13211 35004 ft 386 kts 178°
2026-04-26 21:02 -42.33284 -71.12933 34984 ft 377 kts 178°
2026-04-26 21:02 -42.38513 -71.12658 35009 ft 377 kts 178°
2026-04-26 21:03 -42.43775 -71.12382 35011 ft 379 kts 178°
2026-04-26 21:03 -42.49073 -71.12103 35011 ft 382 kts 178°
2026-04-26 21:04 -42.54392 -71.11822 35006 ft 383 kts 178°
2026-04-26 21:04 -42.59734 -71.11540 34999 ft 385 kts 178°
2026-04-26 21:05 -42.65089 -71.11256 34997 ft 385 kts 178°
2026-04-26 21:05 -42.70435 -71.10973 35000 ft 384 kts 178°
2026-04-26 21:06 -42.75762 -71.10689 35000 ft 382 kts 178°
2026-04-26 21:06 -42.81064 -71.10407 34998 ft 380 kts 178°
2026-04-26 21:07 -42.86304 -71.10128 34995 ft 378 kts 178°
2026-04-26 21:07 -42.91544 -71.09635 35000 ft 377 kts 173°
2026-04-26 21:08 -42.96738 -71.08708 35002 ft 376 kts 172°
2026-04-26 21:08 -43.01913 -71.07743 35004 ft 376 kts 173°
2026-04-26 21:09 -43.07115 -71.06802 35004 ft 376 kts 173°
2026-04-26 21:09 -43.12317 -71.05881 35003 ft 377 kts 173°
2026-04-26 21:10 -43.17530 -71.04964 35002 ft 378 kts 173°
2026-04-26 21:10 -43.22757 -71.04045 34987 ft 380 kts 173°
2026-04-26 21:11 -43.28001 -71.03122 34991 ft 381 kts 173°
2026-04-26 21:11 -43.33262 -71.02195 35005 ft 382 kts 173°
2026-04-26 21:12 -43.38538 -71.01263 35000 ft 382 kts 173°
2026-04-26 21:12 -43.43818 -71.00329 35002 ft 383 kts 173°
2026-04-26 21:13 -43.49104 -70.99392 34998 ft 383 kts 173°
2026-04-26 21:13 -43.51726 -70.98913 35700 ft 375 kts 179°
2026-04-26 21:13 -43.54279 -70.98450 35456 ft 365 kts 179°
2026-04-26 21:13 -43.56756 -70.98006 35357 ft 353 kts 179°
2026-04-26 21:14 -43.59152 -70.97578 35279 ft 342 kts 179°
2026-04-26 21:14 -43.61467 -70.97164 35232 ft 329 kts 180°
2026-04-26 21:14 -43.63731 -70.96763 35252 ft 330 kts 180°
2026-04-26 21:15 -43.68399 -70.95954 35259 ft 347 kts 179°
2026-04-26 21:15 -43.73305 -70.95093 35252 ft 363 kts 179°
2026-04-26 21:16 -43.78422 -70.94182 35249 ft 378 kts 179°
2026-04-26 21:16 -43.83725 -70.93231 35242 ft 391 kts 179°
2026-04-26 21:17 -43.89190 -70.92246 35233 ft 400 kts 179°
2026-04-26 21:17 -43.94719 -70.91244 35230 ft 402 kts 179°
2026-04-26 21:18 -44.00242 -70.90240 35224 ft 396 kts 179°
2026-04-26 21:18 -44.05672 -70.89255 35227 ft 393 kts 179°
2026-04-26 21:19 -44.11068 -70.88281 35226 ft 394 kts 179°
2026-04-26 21:19 -44.16545 -70.87290 35225 ft 395 kts 179°
2026-04-26 21:20 -44.21967 -70.86306 35218 ft 396 kts 179°
2026-04-26 21:20 -44.27439 -70.85310 35218 ft 397 kts 179°
2026-04-26 21:21 -44.32927 -70.84309 35218 ft 398 kts 179°
2026-04-26 21:21 -44.38428 -70.83304 35222 ft 399 kts 179°
2026-04-26 21:22 -44.43952 -70.82293 35212 ft 401 kts 179°
2026-04-26 21:22 -44.49492 -70.81277 35204 ft 402 kts 179°
2026-04-26 21:23 -44.57818 -70.79745 35194 ft 403 kts 179°
2026-04-26 21:23 -44.63377 -70.78721 35184 ft 403 kts 179°
2026-04-26 21:24 -44.68909 -70.77699 35182 ft 403 kts 179°
2026-04-26 21:24 -44.74477 -70.76669 35179 ft 404 kts 179°
2026-04-26 21:25 -44.80046 -70.75637 35184 ft 404 kts 179°
2026-04-26 21:25 -44.85619 -70.74605 35172 ft 404 kts 178°
2026-04-26 21:26 -44.91192 -70.73573 35173 ft 404 kts 178°
2026-04-26 21:26 -44.96774 -70.72536 35170 ft 405 kts 178°
2026-04-26 21:27 -45.02363 -70.71496 35172 ft 405 kts 178°
2026-04-26 21:27 -45.07955 -70.70453 35172 ft 406 kts 178°
2026-04-26 21:28 -45.13554 -70.69407 35164 ft 406 kts 178°
2026-04-26 21:28 -45.19161 -70.68357 35166 ft 407 kts 178°
2026-04-26 21:29 -45.24782 -70.67302 35167 ft 408 kts 178°
2026-04-26 21:29 -45.30409 -70.66244 35165 ft 409 kts 178°
2026-04-26 21:30 -45.36054 -70.65181 35165 ft 410 kts 178°
2026-04-26 21:30 -45.41708 -70.64114 35161 ft 410 kts 178°
2026-04-26 21:31 -45.47374 -70.63042 35160 ft 411 kts 178°
2026-04-26 21:31 -45.53050 -70.61966 35159 ft 412 kts 178°
2026-04-26 21:32 -45.58734 -70.60887 35152 ft 412 kts 178°
2026-04-26 21:32 -45.64426 -70.59803 35155 ft 413 kts 178°
2026-04-26 21:33 -45.70098 -70.58722 35150 ft 414 kts 178°
2026-04-26 21:33 -45.75803 -70.57631 35148 ft 414 kts 178°
2026-04-26 21:34 -45.81522 -70.56536 35145 ft 415 kts 178°
2026-04-26 21:34 -45.87247 -70.55438 35138 ft 415 kts 178°
2026-04-26 21:35 -45.92981 -70.54337 35142 ft 416 kts 178°
2026-04-26 21:35 -45.98724 -70.53233 35137 ft 417 kts 178°
2026-04-26 21:36 -46.03506 -70.52312 35132 ft 417 kts 178°
2026-04-26 21:36 -46.10233 -70.51014 35131 ft 418 kts 178°
2026-04-26 21:37 -46.16000 -70.49899 35127 ft 418 kts 178°
2026-04-26 21:37 -46.21781 -70.48778 35122 ft 419 kts 178°
2026-04-26 21:38 -46.27567 -70.47654 35121 ft 420 kts 178°
2026-04-26 21:38 -46.33367 -70.46524 35117 ft 421 kts 178°
2026-04-26 21:39 -46.39169 -70.45392 35119 ft 421 kts 178°
2026-04-26 21:39 -46.44982 -70.44255 35116 ft 422 kts 178°
2026-04-26 21:40 -46.50806 -70.43114 35115 ft 423 kts 178°
2026-04-26 21:40 -46.56641 -70.41969 35111 ft 423 kts 178°
2026-04-26 21:41 -46.62480 -70.40819 35110 ft 424 kts 178°
2026-04-26 21:41 -46.68333 -70.39665 35109 ft 424 kts 178°
2026-04-26 21:42 -46.74151 -70.38514 35106 ft 425 kts 178°
2026-04-26 21:42 -46.80004 -70.37355 35103 ft 425 kts 178°
2026-04-26 21:43 -46.85874 -70.36189 35114 ft 425 kts 177°
2026-04-26 21:43 -46.90753 -70.35219 35109 ft 426 kts 177°
2026-04-26 21:44 -46.96633 -70.34047 35101 ft 427 kts 177°
2026-04-26 21:44 -47.02520 -70.32870 35098 ft 428 kts 177°
2026-04-26 21:45 -47.08424 -70.31688 35107 ft 428 kts 177°
2026-04-26 21:45 -47.14337 -70.30501 35095 ft 429 kts 177°
2026-04-26 21:46 -47.20257 -70.29310 35097 ft 430 kts 177°
2026-04-26 21:46 -47.26185 -70.28114 35090 ft 431 kts 177°
2026-04-26 21:47 -47.32129 -70.26910 35086 ft 431 kts 177°
2026-04-26 21:47 -47.38073 -70.25703 35089 ft 432 kts 177°
2026-04-26 21:48 -47.44024 -70.24492 35076 ft 432 kts 177°
2026-04-26 21:48 -47.49986 -70.23277 35079 ft 432 kts 177°
2026-04-26 21:49 -47.55940 -70.22059 35069 ft 433 kts 177°
2026-04-26 21:49 -47.61919 -70.20835 35070 ft 433 kts 177°
2026-04-26 21:50 -47.67886 -70.19610 35064 ft 433 kts 177°
2026-04-26 21:50 -47.73861 -70.18380 35062 ft 433 kts 177°
2026-04-26 21:51 -47.79836 -70.17147 35054 ft 434 kts 177°
2026-04-26 21:51 -47.85818 -70.15911 35049 ft 434 kts 177°
2026-04-26 21:52 -47.91799 -70.14671 35050 ft 434 kts 177°
2026-04-26 21:52 -47.97788 -70.13427 35047 ft 435 kts 177°
2026-04-26 21:53 -48.03746 -70.12187 35043 ft 435 kts 177°
2026-04-26 21:53 -48.09747 -70.10934 35043 ft 435 kts 177°
2026-04-26 21:54 -48.15756 -70.09677 35034 ft 436 kts 177°
2026-04-26 21:54 -48.21765 -70.08417 35036 ft 436 kts 177°
2026-04-26 21:55 -48.27778 -70.07153 35032 ft 437 kts 177°
2026-04-26 21:55 -48.33780 -70.05888 35025 ft 438 kts 177°
2026-04-26 21:56 -48.39859 -70.04604 35015 ft 439 kts 177°
2026-04-26 21:56 -48.45869 -70.03333 35010 ft 439 kts 177°
2026-04-26 21:57 -48.51964 -70.02051 35001 ft 440 kts 177°
2026-04-26 21:57 -48.57977 -70.00786 35007 ft 440 kts 177°
2026-04-26 21:58 -48.64059 -69.99502 34993 ft 441 kts 177°
2026-04-26 21:58 -48.70142 -69.98215 34986 ft 442 kts 177°
2026-04-26 21:59 -48.76234 -69.96921 34983 ft 442 kts 177°
2026-04-26 21:59 -48.82331 -69.95624 34980 ft 442 kts 177°
2026-04-26 22:00 -48.88425 -69.94324 34979 ft 443 kts 177°
2026-04-26 22:00 -48.94519 -69.93021 34974 ft 443 kts 177°
2026-04-26 22:01 -49.00637 -69.91710 34970 ft 443 kts 177°
2026-04-26 22:01 -49.06748 -69.90396 34969 ft 444 kts 177°
2026-04-26 22:02 -49.12816 -69.89089 34967 ft 444 kts 177°
2026-04-26 22:02 -49.18948 -69.87765 34963 ft 445 kts 177°
2026-04-26 22:03 -49.25079 -69.86438 34960 ft 445 kts 177°
2026-04-26 22:03 -49.31224 -69.85104 34961 ft 446 kts 177°
2026-04-26 22:04 -49.37365 -69.83767 34959 ft 446 kts 177°
2026-04-26 22:04 -49.43514 -69.82426 34954 ft 446 kts 177°
2026-04-26 22:05 -49.49668 -69.81082 34959 ft 447 kts 177°
2026-04-26 22:05 -49.55820 -69.79732 34954 ft 446 kts 177°
2026-04-26 22:06 -49.61974 -69.78378 34959 ft 446 kts 177°
2026-04-26 22:06 -49.68121 -69.77023 34955 ft 446 kts 177°
2026-04-26 22:07 -49.74265 -69.75666 34957 ft 446 kts 177°
2026-04-26 22:07 -49.80404 -69.74306 34952 ft 446 kts 177°
2026-04-26 22:08 -49.86536 -69.72944 34956 ft 445 kts 176°
2026-04-26 22:08 -49.92674 -69.71578 34945 ft 445 kts 176°
2026-04-26 22:09 -49.98757 -69.70220 34949 ft 444 kts 176°
2026-04-26 22:09 -50.04872 -69.68852 34936 ft 444 kts 176°
2026-04-26 22:10 -50.10985 -69.67480 34947 ft 443 kts 176°
2026-04-26 22:10 -50.17088 -69.66107 34939 ft 443 kts 176°
2026-04-26 22:11 -50.23187 -69.64732 34935 ft 443 kts 176°
2026-04-26 22:11 -50.29282 -69.63354 34925 ft 442 kts 176°
2026-04-26 22:12 -50.35367 -69.61974 34931 ft 442 kts 176°
2026-04-26 22:12 -50.41456 -69.60590 34928 ft 441 kts 176°
2026-04-26 22:13 -50.47533 -69.59206 34930 ft 441 kts 176°
2026-04-26 22:13 -50.53606 -69.57818 34910 ft 441 kts 176°
2026-04-26 22:14 -50.59637 -69.56436 34915 ft 441 kts 176°
2026-04-26 22:14 -50.65699 -69.55044 34903 ft 440 kts 176°
2026-04-26 22:15 -50.71759 -69.53650 34908 ft 440 kts 176°
2026-04-26 22:15 -50.77823 -69.52276 34903 ft 440 kts 176°
2026-04-26 22:16 -50.83882 -69.50911 34906 ft 440 kts 176°
2026-04-26 22:16 -50.89934 -69.49541 34900 ft 439 kts 176°
2026-04-26 22:17 -50.95980 -69.48167 34906 ft 439 kts 176°
2026-04-26 22:17 -51.02015 -69.46791 34902 ft 438 kts 176°
2026-04-26 22:18 -51.08055 -69.45410 34903 ft 438 kts 176°
2026-04-26 22:18 -51.14080 -69.44028 34899 ft 437 kts 176°
2026-04-26 22:19 -51.20098 -69.42645 34909 ft 437 kts 176°
2026-04-26 22:19 -51.26109 -69.41260 34904 ft 436 kts 176°
2026-04-26 22:20 -51.31102 -69.40107 34910 ft 436 kts 176°
2026-04-26 22:20 -51.38065 -69.38495 34904 ft 435 kts 176°
2026-04-26 22:21 -51.44066 -69.37101 34909 ft 435 kts 175°
2026-04-26 22:21 -51.50050 -69.35707 34919 ft 434 kts 175°
2026-04-26 22:22 -51.56035 -69.34310 34924 ft 434 kts 175°
2026-04-26 22:22 -51.61987 -69.32538 34923 ft 439 kts 167°
2026-04-26 22:23 -51.67665 -69.28793 34921 ft 442 kts 160°
2026-04-26 22:23 -51.73286 -69.24762 34923 ft 442 kts 160°
2026-04-26 22:24 -51.78872 -69.20788 34914 ft 441 kts 161°
2026-04-26 22:24 -51.84535 -69.16797 34916 ft 441 kts 161°
2026-04-26 22:25 -51.90166 -69.12837 34694 ft 444 kts 161°
2026-04-26 22:25 -51.93016 -69.10832 34809 ft 449 kts 161°
2026-04-26 22:25 -51.95904 -69.08798 34868 ft 455 kts 161°
2026-04-26 22:26 -52.01752 -69.04667 34909 ft 468 kts 161°
2026-04-26 22:26 -52.07761 -69.00402 34906 ft 473 kts 161°
2026-04-26 22:27 -52.13790 -68.96104 34897 ft 472 kts 161°
2026-04-26 22:27 -52.19752 -68.91840 34887 ft 464 kts 161°
2026-04-26 22:28 -52.25658 -68.87611 34908 ft 464 kts 161°
2026-04-26 22:28 -52.31561 -68.83377 34907 ft 464 kts 161°
2026-04-26 22:29 -52.37491 -68.79109 34904 ft 465 kts 161°
2026-04-26 22:29 -52.43420 -68.74827 34901 ft 466 kts 161°
2026-04-26 22:30 -52.49357 -68.70526 34893 ft 466 kts 161°
2026-04-26 22:30 -52.55256 -68.66240 34894 ft 466 kts 161°
2026-04-26 22:31 -52.61194 -68.61913 34890 ft 466 kts 161°
2026-04-26 22:31 -52.67126 -68.57577 34890 ft 467 kts 161°
2026-04-26 22:32 -52.72102 -68.53930 34886 ft 466 kts 161°
2026-04-26 22:32 -52.77993 -68.49647 34883 ft 464 kts 164°
2026-04-26 22:33 -52.87307 -68.47031 34891 ft 450 kts 182°
2026-04-26 22:34 -52.93559 -68.46563 34878 ft 450 kts 182°
2026-04-26 22:34 -52.99812 -68.46039 34877 ft 450 kts 182°
2026-04-26 22:35 -53.06074 -68.45454 34874 ft 451 kts 182°
2026-04-26 22:35 -53.12343 -68.44850 34872 ft 451 kts 182°
2026-04-26 22:36 -53.18617 -68.44245 34870 ft 452 kts 182°
2026-04-26 22:36 -53.24890 -68.43641 34864 ft 452 kts 182°
2026-04-26 22:37 -53.31174 -68.43034 34862 ft 452 kts 182°
2026-04-26 22:37 -53.37457 -68.42425 34861 ft 452 kts 182°
2026-04-26 22:38 -53.43692 -68.40396 34858 ft 465 kts 165°
2026-04-26 22:38 -53.49709 -68.36348 34846 ft 467 kts 162°
2026-04-26 22:39 -53.55661 -68.32180 34845 ft 467 kts 162°
2026-04-26 22:39 -53.61673 -68.28039 34855 ft 466 kts 163°
2026-04-26 22:40 -53.67689 -68.23945 34860 ft 466 kts 163°
2026-04-26 22:40 -53.73629 -68.19900 34385 ft 454 kts 163°
2026-04-26 22:40 -53.76564 -68.17900 33631 ft 456 kts 163°
2026-04-26 22:41 -53.79506 -68.15893 33151 ft 451 kts 163°
2026-04-26 22:41 -53.82373 -68.13927 33045 ft 438 kts 163°
2026-04-26 22:41 -53.85156 -68.12012 32902 ft 426 kts 163°
2026-04-26 22:41 -53.87881 -68.10139 32631 ft 419 kts 163°
2026-04-26 22:42 -53.90570 -68.08292 32242 ft 415 kts 163°
2026-04-26 22:42 -53.93245 -68.06456 31687 ft 415 kts 163°
2026-04-26 22:42 -53.95932 -68.04612 31013 ft 417 kts 163°
2026-04-26 22:42 -53.98619 -68.02763 30157 ft 418 kts 163°
2026-04-26 22:43 -54.01320 -68.00902 28999 ft 422 kts 163°
2026-04-26 22:43 -54.04054 -67.99012 28193 ft 419 kts 162°
2026-04-26 22:43 -54.06687 -67.97177 28069 ft 398 kts 162°
2026-04-26 22:43 -54.09192 -67.95425 27927 ft 380 kts 163°
2026-04-26 22:44 -54.11580 -67.93757 27804 ft 363 kts 163°
2026-04-26 22:44 -54.13865 -67.92163 27583 ft 350 kts 163°
2026-04-26 22:44 -54.16105 -67.90607 27094 ft 346 kts 163°
2026-04-26 22:44 -54.18339 -67.89057 26530 ft 346 kts 163°
2026-04-26 22:45 -54.20565 -67.87512 25981 ft 345 kts 163°
2026-04-26 22:45 -54.22781 -67.85968 25487 ft 343 kts 163°
2026-04-26 22:45 -54.24980 -67.84431 25010 ft 340 kts 163°
2026-04-26 22:45 -54.27166 -67.82901 24532 ft 339 kts 162°
2026-04-26 22:46 -54.29343 -67.81374 24064 ft 337 kts 162°
2026-04-26 22:46 -54.31500 -67.79861 23599 ft 335 kts 162°
2026-04-26 22:46 -54.33662 -67.78341 23096 ft 334 kts 162°
2026-04-26 22:46 -54.35772 -67.76856 22610 ft 330 kts 162°
2026-04-26 22:47 -54.37884 -67.75367 22152 ft 327 kts 162°
2026-04-26 22:47 -54.39979 -67.73889 21678 ft 324 kts 162°
2026-04-26 22:47 -54.42058 -67.72422 21218 ft 321 kts 162°
2026-04-26 22:47 -54.44111 -67.70971 20768 ft 318 kts 162°
2026-04-26 22:48 -54.46143 -67.69533 20319 ft 315 kts 162°
2026-04-26 22:48 -54.48161 -67.68104 19885 ft 312 kts 162°
2026-04-26 22:48 -54.50176 -67.66793 19454 ft 305 kts 172°
2026-04-26 22:48 -54.52249 -67.66397 19031 ft 297 kts 182°
2026-04-26 22:49 -54.54306 -67.66216 18609 ft 295 kts 182°
2026-04-26 22:49 -54.56343 -67.66038 18200 ft 292 kts 182°
2026-04-26 22:49 -54.58372 -67.65844 17735 ft 290 kts 182°
2026-04-26 22:49 -54.60380 -67.65634 17265 ft 288 kts 182°
2026-04-26 22:50 -54.62377 -67.65416 16793 ft 287 kts 182°
2026-04-26 22:50 -54.64359 -67.65195 16327 ft 285 kts 182°
2026-04-26 22:50 -54.66331 -67.64973 15873 ft 283 kts 182°
2026-04-26 22:50 -54.68289 -67.64753 15415 ft 281 kts 182°
2026-04-26 22:51 -54.70230 -67.64534 14983 ft 279 kts 183°
2026-04-26 22:51 -54.72167 -67.64314 14570 ft 277 kts 183°
2026-04-26 22:51 -54.74089 -67.64099 14118 ft 278 kts 183°
2026-04-26 22:51 -54.76093 -67.63891 13161 ft 297 kts 183°
2026-04-26 22:52 -54.78190 -67.63798 12193 ft 303 kts 193°
2026-04-26 22:52 -54.80131 -67.64924 11289 ft 297 kts 217°
2026-04-26 22:52 -54.81589 -67.67261 10429 ft 275 kts 244°
2026-04-26 22:52 -54.82095 -67.70255 9553 ft 250 kts 268°
2026-04-26 22:53 -54.82172 -67.73178 8594 ft 236 kts 271°
2026-04-26 22:53 -54.82228 -67.75955 7676 ft 223 kts 270°
2026-04-26 22:53 -54.82305 -67.78522 6768 ft 208 kts 270°
2026-04-26 22:53 -54.82392 -67.80926 6380 ft 187 kts 270°
2026-04-26 22:54 -54.82471 -67.83156 6152 ft 181 kts 270°
2026-04-26 22:54 -54.82526 -67.84581 6024 ft 176 kts 270°
2026-04-26 22:54 -54.82618 -67.86915 5744 ft 172 kts 270°
2026-04-26 22:54 -54.82701 -67.89013 5595 ft 178 kts 270°
2026-04-26 22:55 -54.82787 -67.91163 5345 ft 176 kts 271°
2026-04-26 22:55 -54.82873 -67.93266 5175 ft 175 kts 271°
2026-04-26 22:55 -54.82958 -67.95348 5078 ft 173 kts 271°
2026-04-26 22:55 -54.83043 -67.97425 4970 ft 172 kts 271°
2026-04-26 22:56 -54.83128 -67.99493 4866 ft 171 kts 271°
2026-04-26 22:56 -54.83208 -68.01542 4801 ft 172 kts 271°
2026-04-26 22:56 -54.83293 -68.03636 4720 ft 176 kts 271°
2026-04-26 22:56 -54.83381 -68.05805 4362 ft 180 kts 271°
2026-04-26 22:57 -54.83469 -68.07962 3899 ft 178 kts 271°
2026-04-26 22:57 -54.83557 -68.10115 3353 ft 179 kts 271°
2026-04-26 22:57 -54.83644 -68.12250 2774 ft 177 kts 270°
2026-04-26 22:57 -54.83729 -68.14372 2202 ft 176 kts 270°
2026-04-26 22:58 -54.83814 -68.16486 1639 ft 174 kts 269°
2026-04-26 22:58 -54.83896 -68.18545 1183 ft 167 kts 266°
2026-04-26 22:58 -54.83974 -68.20533 1059 ft 169 kts 266°
2026-04-26 22:58 -54.84049 -68.22482 981 ft 159 kts 265°
2026-04-26 22:59 -54.84114 -68.24436 579 ft 161 kts 265°
2026-04-26 22:59 -54.84194 -68.26319 260 ft 153 kts 265°
2026-04-26 22:59 -54.84289 -68.28092 70 ft 115 kts 266°
2026-04-26 22:59 -54.84323 -68.29192 84 ft 79 kts 265°
2026-04-26 23:00 -54.84361 -68.30106 84 ft 57 kts 266°
2026-04-26 23:00 -54.84387 -68.30767 91 ft 28 kts 266°
2026-04-26 23:00 -54.84291 -68.30964 89 ft 24 kts 354°
2026-04-26 23:00 -54.84131 -68.30987 88 ft 23 kts 346°
2026-04-26 23:01 -54.84067 -68.31117 89 ft 11 kts 263°
2026-04-26 23:01 -54.84097 -68.31217 90 ft 8 kts 255°
2026-04-26 23:01 -54.84090 -68.31282 91 ft 0 kts 305°
2026-04-26 23:01 -54.84068 -68.31297 90 ft 6 kts 353°
2026-04-26 23:02 -54.84029 -68.31267 90 ft 6 kts 27°
2026-04-26 23:02 -54.84016 -68.31257 92 ft 0 kts 24°